owner,sensor,date,latitude,longitude,vertical_datum,sea_water_temperature,qcFlag 
COMPS,ioos:station:USF.COMPS:C10:1,2017-09-01T00:05:00Z,27.1690,-82.9260,-1.0,30.95,2 
COMPS,ioos:station:USF.COMPS:C10:1,2017-09-01T00:35:00Z,27.1690,-82.9260,-1.0,30.89,2 
COMPS,ioos:station:USF.COMPS:C10:1,2017-09-01T01:05:00Z,27.1690,-82.9260,-1.0,30.85,2 
COMPS,ioos:station:USF.COMPS:C10:1,2017-09-01T01:35:00Z,27.1690,-82.9260,-1.0,30.87,2 
COMPS,ioos:station:USF.COMPS:C10:1,2017-09-01T02:05:00Z,27.1690,-82.9260,-1.0,30.82,2 
COMPS,ioos:station:USF.COMPS:C10:1,2017-09-01T02:35:00Z,27.1690,-82.9260,-1.0,30.8,2 
COMPS,ioos:station:USF.COMPS:C10:1,2017-09-01T03:05:00Z,27.1690,-82.9260,-1.0,30.79,2 
COMPS,ioos:station:USF.COMPS:C10:1,2017-09-01T03:35:00Z,27.1690,-82.9260,-1.0,30.76,2 
COMPS,ioos:station:USF.COMPS:C10:1,2017-09-01T04:05:00Z,27.1690,-82.9260,-1.0,30.78,2 
COMPS,ioos:station:USF.COMPS:C10:1,2017-09-01T04:35:00Z,27.1690,-82.9260,-1.0,30.77,2 
COMPS,ioos:station:USF.COMPS:C10:1,2017-09-01T05:05:00Z,27.1690,-82.9260,-1.0,30.76,2 
COMPS,ioos:station:USF.COMPS:C10:1,2017-09-01T05:35:00Z,27.1690,-82.9260,-1.0,30.73,2 
COMPS,ioos:station:USF.COMPS:C10:1,2017-09-01T06:05:00Z,27.1690,-82.9260,-1.0,30.71,2 
COMPS,ioos:station:USF.COMPS:C10:1,2017-09-01T06:35:00Z,27.1690,-82.9260,-1.0,30.68,2 
COMPS,ioos:station:USF.COMPS:C10:1,2017-09-01T07:05:00Z,27.1690,-82.9260,-1.0,30.65,2 
COMPS,ioos:station:USF.COMPS:C10:1,2017-09-01T07:35:00Z,27.1690,-82.9260,-1.0,30.64,2 
COMPS,ioos:station:USF.COMPS:C10:1,2017-09-01T08:05:00Z,27.1690,-82.9260,-1.0,30.63,2 
COMPS,ioos:station:USF.COMPS:C10:1,2017-09-01T08:35:00Z,27.1690,-82.9260,-1.0,30.59,2 
COMPS,ioos:station:USF.COMPS:C10:1,2017-09-01T09:05:00Z,27.1690,-82.9260,-1.0,30.58,2 
COMPS,ioos:station:USF.COMPS:C10:1,2017-09-01T09:35:00Z,27.1690,-82.9260,-1.0,30.57,2 
COMPS,ioos:station:USF.COMPS:C10:1,2017-09-01T10:05:00Z,27.1690,-82.9260,-1.0,30.55,2 
COMPS,ioos:station:USF.COMPS:C10:1,2017-09-01T10:35:00Z,27.1690,-82.9260,-1.0,30.54,2 
COMPS,ioos:station:USF.COMPS:C10:1,2017-09-01T11:05:00Z,27.1690,-82.9260,-1.0,30.53,2 
COMPS,ioos:station:USF.COMPS:C10:1,2017-09-01T11:35:00Z,27.1690,-82.9260,-1.0,30.52,2 
COMPS,ioos:station:USF.COMPS:C10:1,2017-09-01T12:05:00Z,27.1690,-82.9260,-1.0,30.52,2 
COMPS,ioos:station:USF.COMPS:C10:1,2017-09-01T12:35:00Z,27.1690,-82.9260,-1.0,30.51,2 
COMPS,ioos:station:USF.COMPS:C10:1,2017-09-01T13:05:00Z,27.1690,-82.9260,-1.0,30.49,2 
COMPS,ioos:station:USF.COMPS:C10:1,2017-09-01T13:35:00Z,27.1690,-82.9260,-1.0,30.49,2 
COMPS,ioos:station:USF.COMPS:C10:1,2017-09-01T14:05:00Z,27.1690,-82.9260,-1.0,30.48,2 
COMPS,ioos:station:USF.COMPS:C10:1,2017-09-01T14:35:00Z,27.1690,-82.9260,-1.0,30.47,2 
COMPS,ioos:station:USF.COMPS:C10:1,2017-09-01T15:05:00Z,27.1690,-82.9260,-1.0,30.48,2 
COMPS,ioos:station:USF.COMPS:C10:1,2017-09-01T15:35:00Z,27.1690,-82.9260,-1.0,30.5,2 
COMPS,ioos:station:USF.COMPS:C10:1,2017-09-01T16:05:00Z,27.1690,-82.9260,-1.0,30.53,2 
COMPS,ioos:station:USF.COMPS:C10:1,2017-09-01T16:35:00Z,27.1690,-82.9260,-1.0,30.58,2 
COMPS,ioos:station:USF.COMPS:C10:1,2017-09-01T17:05:00Z,27.1690,-82.9260,-1.0,30.62,2 
COMPS,ioos:station:USF.COMPS:C10:1,2017-09-01T17:35:00Z,27.1690,-82.9260,-1.0,30.63,2 
COMPS,ioos:station:USF.COMPS:C10:1,2017-09-01T18:05:00Z,27.1690,-82.9260,-1.0,30.69,2 
COMPS,ioos:station:USF.COMPS:C10:1,2017-09-01T18:35:00Z,27.1690,-82.9260,-1.0,30.7,2 
COMPS,ioos:station:USF.COMPS:C10:1,2017-09-01T19:05:00Z,27.1690,-82.9260,-1.0,30.73,2 
COMPS,ioos:station:USF.COMPS:C10:1,2017-09-01T19:35:00Z,27.1690,-82.9260,-1.0,30.77,2 
COMPS,ioos:station:USF.COMPS:C10:1,2017-09-01T20:05:00Z,27.1690,-82.9260,-1.0,30.75,2 
COMPS,ioos:station:USF.COMPS:C10:1,2017-09-01T20:35:00Z,27.1690,-82.9260,-1.0,30.73,2 
COMPS,ioos:station:USF.COMPS:C10:1,2017-09-01T21:05:00Z,27.1690,-82.9260,-1.0,30.74,2 
COMPS,ioos:station:USF.COMPS:C10:1,2017-09-01T21:35:00Z,27.1690,-82.9260,-1.0,30.73,2 
COMPS,ioos:station:USF.COMPS:C10:1,2017-09-01T22:05:00Z,27.1690,-82.9260,-1.0,30.68,2 
COMPS,ioos:station:USF.COMPS:C10:1,2017-09-01T22:35:00Z,27.1690,-82.9260,-1.0,30.68,2 
COMPS,ioos:station:USF.COMPS:C10:1,2017-09-01T23:05:00Z,27.1690,-82.9260,-1.0,30.67,2 
COMPS,ioos:station:USF.COMPS:C10:1,2017-09-01T23:35:00Z,27.1690,-82.9260,-1.0,30.66,2 
COMPS,ioos:station:USF.COMPS:C10:1,2017-09-02T00:05:00Z,27.1690,-82.9260,-1.0,30.68,2 
COMPS,ioos:station:USF.COMPS:C10:1,2017-09-02T00:35:00Z,27.1690,-82.9260,-1.0,30.65,2 
COMPS,ioos:station:USF.COMPS:C10:1,2017-09-02T01:05:00Z,27.1690,-82.9260,-1.0,30.67,2 
COMPS,ioos:station:USF.COMPS:C10:1,2017-09-02T01:35:00Z,27.1690,-82.9260,-1.0,30.66,2 
COMPS,ioos:station:USF.COMPS:C10:1,2017-09-02T02:05:00Z,27.1690,-82.9260,-1.0,30.64,2 
COMPS,ioos:station:USF.COMPS:C10:1,2017-09-02T02:35:00Z,27.1690,-82.9260,-1.0,30.64,2 
COMPS,ioos:station:USF.COMPS:C10:1,2017-09-02T03:05:00Z,27.1690,-82.9260,-1.0,30.6,2 
COMPS,ioos:station:USF.COMPS:C10:1,2017-09-02T03:35:00Z,27.1690,-82.9260,-1.0,30.6,2 
COMPS,ioos:station:USF.COMPS:C10:1,2017-09-02T04:05:00Z,27.1690,-82.9260,-1.0,30.56,2 
COMPS,ioos:station:USF.COMPS:C10:1,2017-09-02T04:35:00Z,27.1690,-82.9260,-1.0,30.56,2 
COMPS,ioos:station:USF.COMPS:C10:1,2017-09-02T05:05:00Z,27.1690,-82.9260,-1.0,30.53,2 
COMPS,ioos:station:USF.COMPS:C10:1,2017-09-02T05:35:00Z,27.1690,-82.9260,-1.0,30.53,2 
COMPS,ioos:station:USF.COMPS:C10:1,2017-09-02T07:05:00Z,27.1690,-82.9260,-1.0,30.49,2 
COMPS,ioos:station:USF.COMPS:C10:1,2017-09-02T07:35:00Z,27.1690,-82.9260,-1.0,30.5,2 
COMPS,ioos:station:USF.COMPS:C10:1,2017-09-02T08:05:00Z,27.1690,-82.9260,-1.0,30.5,2 
COMPS,ioos:station:USF.COMPS:C10:1,2017-09-02T08:35:00Z,27.1690,-82.9260,-1.0,30.48,2 
COMPS,ioos:station:USF.COMPS:C10:1,2017-09-02T09:05:00Z,27.1690,-82.9260,-1.0,30.48,2 
COMPS,ioos:station:USF.COMPS:C10:1,2017-09-02T09:35:00Z,27.1690,-82.9260,-1.0,30.48,2 
COMPS,ioos:station:USF.COMPS:C10:1,2017-09-02T10:05:00Z,27.1690,-82.9260,-1.0,30.47,2 
COMPS,ioos:station:USF.COMPS:C10:1,2017-09-02T10:35:00Z,27.1690,-82.9260,-1.0,30.46,2 
COMPS,ioos:station:USF.COMPS:C10:1,2017-09-02T11:05:00Z,27.1690,-82.9260,-1.0,30.46,2 
COMPS,ioos:station:USF.COMPS:C10:1,2017-09-02T11:35:00Z,27.1690,-82.9260,-1.0,30.46,2 
COMPS,ioos:station:USF.COMPS:C10:1,2017-09-02T12:05:00Z,27.1690,-82.9260,-1.0,30.47,2 
COMPS,ioos:station:USF.COMPS:C10:1,2017-09-02T12:35:00Z,27.1690,-82.9260,-1.0,30.46,2 
COMPS,ioos:station:USF.COMPS:C10:1,2017-09-02T13:05:00Z,27.1690,-82.9260,-1.0,30.47,2 
COMPS,ioos:station:USF.COMPS:C10:1,2017-09-02T13:35:00Z,27.1690,-82.9260,-1.0,30.45,2 
COMPS,ioos:station:USF.COMPS:C10:1,2017-09-02T14:05:00Z,27.1690,-82.9260,-1.0,30.45,2 
COMPS,ioos:station:USF.COMPS:C10:1,2017-09-02T14:35:00Z,27.1690,-82.9260,-1.0,30.45,2 
COMPS,ioos:station:USF.COMPS:C10:1,2017-09-02T15:05:00Z,27.1690,-82.9260,-1.0,30.44,2 
COMPS,ioos:station:USF.COMPS:C10:1,2017-09-02T15:35:00Z,27.1690,-82.9260,-1.0,30.45,2 
COMPS,ioos:station:USF.COMPS:C10:1,2017-09-02T16:05:00Z,27.1690,-82.9260,-1.0,30.46,2 
COMPS,ioos:station:USF.COMPS:C10:1,2017-09-02T16:35:00Z,27.1690,-82.9260,-1.0,30.46,2 
COMPS,ioos:station:USF.COMPS:C10:1,2017-09-02T17:05:00Z,27.1690,-82.9260,-1.0,30.48,2 
COMPS,ioos:station:USF.COMPS:C10:1,2017-09-02T17:35:00Z,27.1690,-82.9260,-1.0,30.49,2 
COMPS,ioos:station:USF.COMPS:C10:1,2017-09-02T18:05:00Z,27.1690,-82.9260,-1.0,30.5,2 
COMPS,ioos:station:USF.COMPS:C10:1,2017-09-02T18:35:00Z,27.1690,-82.9260,-1.0,30.53,2 
COMPS,ioos:station:USF.COMPS:C10:1,2017-09-02T19:05:00Z,27.1690,-82.9260,-1.0,30.57,2 
COMPS,ioos:station:USF.COMPS:C10:1,2017-09-02T19:35:00Z,27.1690,-82.9260,-1.0,30.57,2 
COMPS,ioos:station:USF.COMPS:C10:1,2017-09-02T22:05:00Z,27.1690,-82.9260,-1.0,30.45,2 
COMPS,ioos:station:USF.COMPS:C10:1,2017-09-02T22:35:00Z,27.1690,-82.9260,-1.0,30.45,2 
COMPS,ioos:station:USF.COMPS:C10:1,2017-09-02T23:05:00Z,27.1690,-82.9260,-1.0,30.46,2 
COMPS,ioos:station:USF.COMPS:C10:1,2017-09-02T23:35:00Z,27.1690,-82.9260,-1.0,30.42,2 
COMPS,ioos:station:USF.COMPS:C10:1,2017-09-03T00:05:00Z,27.1690,-82.9260,-1.0,30.44,2 
COMPS,ioos:station:USF.COMPS:C10:1,2017-09-03T00:35:00Z,27.1690,-82.9260,-1.0,30.43,2 
COMPS,ioos:station:USF.COMPS:C10:1,2017-09-03T02:05:00Z,27.1690,-82.9260,-1.0,30.43,2 
COMPS,ioos:station:USF.COMPS:C10:1,2017-09-03T02:35:00Z,27.1690,-82.9260,-1.0,30.39,2 
COMPS,ioos:station:USF.COMPS:C10:1,2017-09-03T03:05:00Z,27.1690,-82.9260,-1.0,30.38,2 
COMPS,ioos:station:USF.COMPS:C10:1,2017-09-03T03:35:00Z,27.1690,-82.9260,-1.0,30.37,2 
COMPS,ioos:station:USF.COMPS:C10:1,2017-09-03T04:05:00Z,27.1690,-82.9260,-1.0,30.4,2 
COMPS,ioos:station:USF.COMPS:C10:1,2017-09-03T04:35:00Z,27.1690,-82.9260,-1.0,30.39,2 
COMPS,ioos:station:USF.COMPS:C10:1,2017-09-03T05:05:00Z,27.1690,-82.9260,-1.0,30.4,2 
COMPS,ioos:station:USF.COMPS:C10:1,2017-09-03T05:35:00Z,27.1690,-82.9260,-1.0,30.42,2 
COMPS,ioos:station:USF.COMPS:C10:1,2017-09-03T06:05:00Z,27.1690,-82.9260,-1.0,30.4,2 
COMPS,ioos:station:USF.COMPS:C10:1,2017-09-03T06:35:00Z,27.1690,-82.9260,-1.0,30.4,2 
COMPS,ioos:station:USF.COMPS:C10:1,2017-09-03T07:05:00Z,27.1690,-82.9260,-1.0,30.41,2 
COMPS,ioos:station:USF.COMPS:C10:1,2017-09-03T07:35:00Z,27.1690,-82.9260,-1.0,30.42,2 
COMPS,ioos:station:USF.COMPS:C10:1,2017-09-03T08:05:00Z,27.1690,-82.9260,-1.0,30.41,2 
COMPS,ioos:station:USF.COMPS:C10:1,2017-09-03T08:35:00Z,27.1690,-82.9260,-1.0,30.42,2 
COMPS,ioos:station:USF.COMPS:C10:1,2017-09-03T09:05:00Z,27.1690,-82.9260,-1.0,30.43,2 
COMPS,ioos:station:USF.COMPS:C10:1,2017-09-03T09:35:00Z,27.1690,-82.9260,-1.0,30.42,2 
COMPS,ioos:station:USF.COMPS:C10:1,2017-09-03T10:05:00Z,27.1690,-82.9260,-1.0,30.44,2 
COMPS,ioos:station:USF.COMPS:C10:1,2017-09-03T10:35:00Z,27.1690,-82.9260,-1.0,30.44,2 
COMPS,ioos:station:USF.COMPS:C10:1,2017-09-03T11:05:00Z,27.1690,-82.9260,-1.0,30.44,2 
COMPS,ioos:station:USF.COMPS:C10:1,2017-09-03T11:35:00Z,27.1690,-82.9260,-1.0,30.44,2 
COMPS,ioos:station:USF.COMPS:C10:1,2017-09-03T12:05:00Z,27.1690,-82.9260,-1.0,30.43,2 
COMPS,ioos:station:USF.COMPS:C10:1,2017-09-03T12:35:00Z,27.1690,-82.9260,-1.0,30.43,2 
COMPS,ioos:station:USF.COMPS:C10:1,2017-09-03T13:05:00Z,27.1690,-82.9260,-1.0,30.45,2 
COMPS,ioos:station:USF.COMPS:C10:1,2017-09-03T13:35:00Z,27.1690,-82.9260,-1.0,30.45,2 
COMPS,ioos:station:USF.COMPS:C10:1,2017-09-03T14:05:00Z,27.1690,-82.9260,-1.0,30.46,2 
COMPS,ioos:station:USF.COMPS:C10:1,2017-09-03T14:35:00Z,27.1690,-82.9260,-1.0,30.48,2 
COMPS,ioos:station:USF.COMPS:C10:1,2017-09-03T15:05:00Z,27.1690,-82.9260,-1.0,30.47,2 
COMPS,ioos:station:USF.COMPS:C10:1,2017-09-03T15:35:00Z,27.1690,-82.9260,-1.0,30.51,2 
COMPS,ioos:station:USF.COMPS:C10:1,2017-09-03T16:05:00Z,27.1690,-82.9260,-1.0,30.59,2 
COMPS,ioos:station:USF.COMPS:C10:1,2017-09-03T16:35:00Z,27.1690,-82.9260,-1.0,30.63,2 
COMPS,ioos:station:USF.COMPS:C10:1,2017-09-03T17:05:00Z,27.1690,-82.9260,-1.0,30.51,2 
COMPS,ioos:station:USF.COMPS:C10:1,2017-09-03T17:35:00Z,27.1690,-82.9260,-1.0,30.25,2 
COMPS,ioos:station:USF.COMPS:C10:1,2017-09-03T18:05:00Z,27.1690,-82.9260,-1.0,30.37,2 
COMPS,ioos:station:USF.COMPS:C10:1,2017-09-03T18:35:00Z,27.1690,-82.9260,-1.0,30.57,2 
COMPS,ioos:station:USF.COMPS:C10:1,2017-09-03T19:05:00Z,27.1690,-82.9260,-1.0,30.65,2 
COMPS,ioos:station:USF.COMPS:C10:1,2017-09-03T19:35:00Z,27.1690,-82.9260,-1.0,30.7,2 
COMPS,ioos:station:USF.COMPS:C10:1,2017-09-03T20:05:00Z,27.1690,-82.9260,-1.0,30.85,2 
COMPS,ioos:station:USF.COMPS:C10:1,2017-09-03T20:35:00Z,27.1690,-82.9260,-1.0,30.95,2 
COMPS,ioos:station:USF.COMPS:C10:1,2017-09-03T21:05:00Z,27.1690,-82.9260,-1.0,30.97,2 
COMPS,ioos:station:USF.COMPS:C10:1,2017-09-03T21:35:00Z,27.1690,-82.9260,-1.0,31.08,2 
COMPS,ioos:station:USF.COMPS:C10:1,2017-09-03T22:05:00Z,27.1690,-82.9260,-1.0,31.07,2 
COMPS,ioos:station:USF.COMPS:C10:1,2017-09-03T22:35:00Z,27.1690,-82.9260,-1.0,31.1,2 
COMPS,ioos:station:USF.COMPS:C10:1,2017-09-03T23:05:00Z,27.1690,-82.9260,-1.0,30.93,2 
COMPS,ioos:station:USF.COMPS:C10:1,2017-09-03T23:35:00Z,27.1690,-82.9260,-1.0,30.78,2 
COMPS,ioos:station:USF.COMPS:C10:1,2017-09-04T00:05:00Z,27.1690,-82.9260,-1.0,30.71,2 
COMPS,ioos:station:USF.COMPS:C10:1,2017-09-04T00:35:00Z,27.1690,-82.9260,-1.0,30.63,2 
COMPS,ioos:station:USF.COMPS:C10:1,2017-09-04T01:05:00Z,27.1690,-82.9260,-1.0,30.61,2 
COMPS,ioos:station:USF.COMPS:C10:1,2017-09-04T01:35:00Z,27.1690,-82.9260,-1.0,30.57,2 
COMPS,ioos:station:USF.COMPS:C10:1,2017-09-04T02:05:00Z,27.1690,-82.9260,-1.0,30.52,2 
COMPS,ioos:station:USF.COMPS:C10:1,2017-09-04T02:35:00Z,27.1690,-82.9260,-1.0,30.48,2 
COMPS,ioos:station:USF.COMPS:C10:1,2017-09-04T03:05:00Z,27.1690,-82.9260,-1.0,30.46,2 
COMPS,ioos:station:USF.COMPS:C10:1,2017-09-04T03:35:00Z,27.1690,-82.9260,-1.0,30.46,2 
COMPS,ioos:station:USF.COMPS:C10:1,2017-09-04T04:05:00Z,27.1690,-82.9260,-1.0,30.45,2 
COMPS,ioos:station:USF.COMPS:C10:1,2017-09-04T04:35:00Z,27.1690,-82.9260,-1.0,30.44,2 
COMPS,ioos:station:USF.COMPS:C10:1,2017-09-04T05:05:00Z,27.1690,-82.9260,-1.0,30.43,2 
COMPS,ioos:station:USF.COMPS:C10:1,2017-09-04T05:35:00Z,27.1690,-82.9260,-1.0,30.43,2 
COMPS,ioos:station:USF.COMPS:C10:1,2017-09-04T06:05:00Z,27.1690,-82.9260,-1.0,30.41,2 
COMPS,ioos:station:USF.COMPS:C10:1,2017-09-04T06:35:00Z,27.1690,-82.9260,-1.0,30.4,2 
COMPS,ioos:station:USF.COMPS:C10:1,2017-09-04T07:05:00Z,27.1690,-82.9260,-1.0,30.38,2 
COMPS,ioos:station:USF.COMPS:C10:1,2017-09-04T07:35:00Z,27.1690,-82.9260,-1.0,30.4,2 
COMPS,ioos:station:USF.COMPS:C10:1,2017-09-04T08:05:00Z,27.1690,-82.9260,-1.0,30.4,2 
COMPS,ioos:station:USF.COMPS:C10:1,2017-09-04T08:35:00Z,27.1690,-82.9260,-1.0,30.38,2 
COMPS,ioos:station:USF.COMPS:C10:1,2017-09-04T09:05:00Z,27.1690,-82.9260,-1.0,30.39,2 
COMPS,ioos:station:USF.COMPS:C10:1,2017-09-04T09:35:00Z,27.1690,-82.9260,-1.0,30.38,2 
COMPS,ioos:station:USF.COMPS:C10:1,2017-09-04T10:05:00Z,27.1690,-82.9260,-1.0,30.37,2 
COMPS,ioos:station:USF.COMPS:C10:1,2017-09-04T10:35:00Z,27.1690,-82.9260,-1.0,30.36,2 
COMPS,ioos:station:USF.COMPS:C10:1,2017-09-04T11:05:00Z,27.1690,-82.9260,-1.0,30.39,2 
COMPS,ioos:station:USF.COMPS:C10:1,2017-09-04T11:35:00Z,27.1690,-82.9260,-1.0,30.36,2 
COMPS,ioos:station:USF.COMPS:C10:1,2017-09-04T12:05:00Z,27.1690,-82.9260,-1.0,30.39,2 
COMPS,ioos:station:USF.COMPS:C10:1,2017-09-04T12:35:00Z,27.1690,-82.9260,-1.0,30.38,2 
COMPS,ioos:station:USF.COMPS:C10:1,2017-09-04T13:05:00Z,27.1690,-82.9260,-1.0,30.4,2 
COMPS,ioos:station:USF.COMPS:C10:1,2017-09-04T13:35:00Z,27.1690,-82.9260,-1.0,30.43,2 
COMPS,ioos:station:USF.COMPS:C10:1,2017-09-04T14:05:00Z,27.1690,-82.9260,-1.0,30.43,2 
COMPS,ioos:station:USF.COMPS:C10:1,2017-09-04T14:35:00Z,27.1690,-82.9260,-1.0,30.46,2 
COMPS,ioos:station:USF.COMPS:C10:1,2017-09-04T15:05:00Z,27.1690,-82.9260,-1.0,30.51,2 
COMPS,ioos:station:USF.COMPS:C10:1,2017-09-04T15:35:00Z,27.1690,-82.9260,-1.0,30.52,2 
COMPS,ioos:station:USF.COMPS:C10:1,2017-09-04T16:05:00Z,27.1690,-82.9260,-1.0,30.59,2 
COMPS,ioos:station:USF.COMPS:C10:1,2017-09-04T16:35:00Z,27.1690,-82.9260,-1.0,30.68,2 
COMPS,ioos:station:USF.COMPS:C10:1,2017-09-04T17:05:00Z,27.1690,-82.9260,-1.0,30.8,2 
COMPS,ioos:station:USF.COMPS:C10:1,2017-09-04T17:35:00Z,27.1690,-82.9260,-1.0,30.85,2 
COMPS,ioos:station:USF.COMPS:C10:1,2017-09-04T18:05:00Z,27.1690,-82.9260,-1.0,31.11,2 
COMPS,ioos:station:USF.COMPS:C10:1,2017-09-04T18:35:00Z,27.1690,-82.9260,-1.0,31.26,2 
COMPS,ioos:station:USF.COMPS:C10:1,2017-09-04T19:05:00Z,27.1690,-82.9260,-1.0,31.48,2 
COMPS,ioos:station:USF.COMPS:C10:1,2017-09-04T19:35:00Z,27.1690,-82.9260,-1.0,31.52,2 
COMPS,ioos:station:USF.COMPS:C10:1,2017-09-04T20:05:00Z,27.1690,-82.9260,-1.0,31.47,2 
COMPS,ioos:station:USF.COMPS:C10:1,2017-09-04T20:35:00Z,27.1690,-82.9260,-1.0,31.58,2 
COMPS,ioos:station:USF.COMPS:C10:1,2017-09-04T21:05:00Z,27.1690,-82.9260,-1.0,31.66,2 
COMPS,ioos:station:USF.COMPS:C10:1,2017-09-04T21:35:00Z,27.1690,-82.9260,-1.0,31.97,2 
COMPS,ioos:station:USF.COMPS:C10:1,2017-09-04T22:05:00Z,27.1690,-82.9260,-1.0,31.59,2 
COMPS,ioos:station:USF.COMPS:C10:1,2017-09-04T22:35:00Z,27.1690,-82.9260,-1.0,31.69,2 
COMPS,ioos:station:USF.COMPS:C10:1,2017-09-04T23:05:00Z,27.1690,-82.9260,-1.0,31.37,2 
COMPS,ioos:station:USF.COMPS:C10:1,2017-09-04T23:35:00Z,27.1690,-82.9260,-1.0,31.28,2 
COMPS,ioos:station:USF.COMPS:C10:1,2017-09-05T00:05:00Z,27.1690,-82.9260,-1.0,31.27,2 
COMPS,ioos:station:USF.COMPS:C10:1,2017-09-05T00:35:00Z,27.1690,-82.9260,-1.0,31.2,2 
COMPS,ioos:station:USF.COMPS:C10:1,2017-09-05T01:05:00Z,27.1690,-82.9260,-1.0,31.16,2 
COMPS,ioos:station:USF.COMPS:C10:1,2017-09-05T01:35:00Z,27.1690,-82.9260,-1.0,31.12,2 
COMPS,ioos:station:USF.COMPS:C10:1,2017-09-05T02:05:00Z,27.1690,-82.9260,-1.0,31.01,2 
COMPS,ioos:station:USF.COMPS:C10:1,2017-09-05T02:35:00Z,27.1690,-82.9260,-1.0,30.94,2 
COMPS,ioos:station:USF.COMPS:C10:1,2017-09-05T03:05:00Z,27.1690,-82.9260,-1.0,30.95,2 
COMPS,ioos:station:USF.COMPS:C10:1,2017-09-05T03:35:00Z,27.1690,-82.9260,-1.0,30.87,2 
COMPS,ioos:station:USF.COMPS:C10:1,2017-09-05T04:05:00Z,27.1690,-82.9260,-1.0,30.85,2 
COMPS,ioos:station:USF.COMPS:C10:1,2017-09-05T04:35:00Z,27.1690,-82.9260,-1.0,30.79,2 
COMPS,ioos:station:USF.COMPS:C10:1,2017-09-05T05:05:00Z,27.1690,-82.9260,-1.0,30.73,2 
COMPS,ioos:station:USF.COMPS:C10:1,2017-09-05T05:35:00Z,27.1690,-82.9260,-1.0,30.74,2 
COMPS,ioos:station:USF.COMPS:C10:1,2017-09-05T06:05:00Z,27.1690,-82.9260,-1.0,30.71,2 
COMPS,ioos:station:USF.COMPS:C10:1,2017-09-05T06:35:00Z,27.1690,-82.9260,-1.0,30.66,2 
COMPS,ioos:station:USF.COMPS:C10:1,2017-09-05T07:05:00Z,27.1690,-82.9260,-1.0,30.66,2 
COMPS,ioos:station:USF.COMPS:C10:1,2017-09-05T07:35:00Z,27.1690,-82.9260,-1.0,30.57,2 
COMPS,ioos:station:USF.COMPS:C10:1,2017-09-05T08:05:00Z,27.1690,-82.9260,-1.0,30.53,2 
COMPS,ioos:station:USF.COMPS:C10:1,2017-09-05T08:35:00Z,27.1690,-82.9260,-1.0,30.52,2 
COMPS,ioos:station:USF.COMPS:C10:1,2017-09-05T09:05:00Z,27.1690,-82.9260,-1.0,30.51,2 
COMPS,ioos:station:USF.COMPS:C10:1,2017-09-05T09:35:00Z,27.1690,-82.9260,-1.0,30.52,2 
COMPS,ioos:station:USF.COMPS:C10:1,2017-09-05T10:05:00Z,27.1690,-82.9260,-1.0,30.5,2 
COMPS,ioos:station:USF.COMPS:C10:1,2017-09-05T10:35:00Z,27.1690,-82.9260,-1.0,30.5,2 
COMPS,ioos:station:USF.COMPS:C10:1,2017-09-05T11:05:00Z,27.1690,-82.9260,-1.0,30.51,2 
COMPS,ioos:station:USF.COMPS:C10:1,2017-09-05T11:35:00Z,27.1690,-82.9260,-1.0,30.48,2 
COMPS,ioos:station:USF.COMPS:C10:1,2017-09-05T12:05:00Z,27.1690,-82.9260,-1.0,30.47,2 
COMPS,ioos:station:USF.COMPS:C10:1,2017-09-05T12:35:00Z,27.1690,-82.9260,-1.0,30.44,2 
COMPS,ioos:station:USF.COMPS:C10:1,2017-09-05T13:05:00Z,27.1690,-82.9260,-1.0,30.49,2 
COMPS,ioos:station:USF.COMPS:C10:1,2017-09-05T13:35:00Z,27.1690,-82.9260,-1.0,30.53,2 
COMPS,ioos:station:USF.COMPS:C10:1,2017-09-05T14:05:00Z,27.1690,-82.9260,-1.0,30.53,2 
COMPS,ioos:station:USF.COMPS:C10:1,2017-09-05T14:35:00Z,27.1690,-82.9260,-1.0,30.61,2 
COMPS,ioos:station:USF.COMPS:C10:1,2017-09-05T15:05:00Z,27.1690,-82.9260,-1.0,30.65,2 
COMPS,ioos:station:USF.COMPS:C10:1,2017-09-05T15:35:00Z,27.1690,-82.9260,-1.0,30.67,2 
COMPS,ioos:station:USF.COMPS:C10:1,2017-09-05T16:05:00Z,27.1690,-82.9260,-1.0,30.68,2 
COMPS,ioos:station:USF.COMPS:C10:1,2017-09-05T16:35:00Z,27.1690,-82.9260,-1.0,30.69,2 
COMPS,ioos:station:USF.COMPS:C10:1,2017-09-05T17:05:00Z,27.1690,-82.9260,-1.0,30.75,2 
COMPS,ioos:station:USF.COMPS:C10:1,2017-09-05T17:35:00Z,27.1690,-82.9260,-1.0,30.78,2 
COMPS,ioos:station:USF.COMPS:C10:1,2017-09-05T18:05:00Z,27.1690,-82.9260,-1.0,30.93,2 
COMPS,ioos:station:USF.COMPS:C10:1,2017-09-05T18:35:00Z,27.1690,-82.9260,-1.0,31.03,2 
COMPS,ioos:station:USF.COMPS:C10:1,2017-09-05T19:05:00Z,27.1690,-82.9260,-1.0,31.23,2 
COMPS,ioos:station:USF.COMPS:C10:1,2017-09-05T19:35:00Z,27.1690,-82.9260,-1.0,31.29,2 
COMPS,ioos:station:USF.COMPS:C10:1,2017-09-05T20:05:00Z,27.1690,-82.9260,-1.0,31.31,2 
COMPS,ioos:station:USF.COMPS:C10:1,2017-09-05T20:35:00Z,27.1690,-82.9260,-1.0,31.27,2 
COMPS,ioos:station:USF.COMPS:C10:1,2017-09-05T21:05:00Z,27.1690,-82.9260,-1.0,31.18,2 
COMPS,ioos:station:USF.COMPS:C10:1,2017-09-05T21:35:00Z,27.1690,-82.9260,-1.0,31.16,2 
COMPS,ioos:station:USF.COMPS:C10:1,2017-09-05T22:05:00Z,27.1690,-82.9260,-1.0,31.21,2 
COMPS,ioos:station:USF.COMPS:C10:1,2017-09-05T22:35:00Z,27.1690,-82.9260,-1.0,31.21,2 
COMPS,ioos:station:USF.COMPS:C10:1,2017-09-05T23:05:00Z,27.1690,-82.9260,-1.0,31.2,2 
COMPS,ioos:station:USF.COMPS:C10:1,2017-09-05T23:35:00Z,27.1690,-82.9260,-1.0,31.28,2 
COMPS,ioos:station:USF.COMPS:C10:1,2017-09-06T00:05:00Z,27.1690,-82.9260,-1.0,31.36,2 
COMPS,ioos:station:USF.COMPS:C10:1,2017-09-06T00:35:00Z,27.1690,-82.9260,-1.0,31.2,2 
COMPS,ioos:station:USF.COMPS:C10:1,2017-09-06T01:05:00Z,27.1690,-82.9260,-1.0,31.04,2 
COMPS,ioos:station:USF.COMPS:C10:1,2017-09-06T01:35:00Z,27.1690,-82.9260,-1.0,30.95,2 
COMPS,ioos:station:USF.COMPS:C10:1,2017-09-06T02:05:00Z,27.1690,-82.9260,-1.0,30.77,2 
COMPS,ioos:station:USF.COMPS:C10:1,2017-09-06T02:35:00Z,27.1690,-82.9260,-1.0,30.78,2 
COMPS,ioos:station:USF.COMPS:C10:1,2017-09-06T16:05:00Z,27.1690,-82.9260,-1.0,30.46,2 
COMPS,ioos:station:USF.COMPS:C10:1,2017-09-06T16:35:00Z,27.1690,-82.9260,-1.0,30.45,2 
COMPS,ioos:station:USF.COMPS:C10:1,2017-09-06T17:05:00Z,27.1690,-82.9260,-1.0,30.4,2 
COMPS,ioos:station:USF.COMPS:C10:1,2017-09-06T17:35:00Z,27.1690,-82.9260,-1.0,30.4,2 
COMPS,ioos:station:USF.COMPS:C10:1,2017-09-06T18:05:00Z,27.1690,-82.9260,-1.0,30.36,2 
COMPS,ioos:station:USF.COMPS:C10:1,2017-09-06T18:35:00Z,27.1690,-82.9260,-1.0,30.27,2 
COMPS,ioos:station:USF.COMPS:C10:1,2017-09-06T19:05:00Z,27.1690,-82.9260,-1.0,30.29,2 
COMPS,ioos:station:USF.COMPS:C10:1,2017-09-06T19:35:00Z,27.1690,-82.9260,-1.0,30.54,2 
COMPS,ioos:station:USF.COMPS:C10:1,2017-09-06T20:05:00Z,27.1690,-82.9260,-1.0,30.57,2 
COMPS,ioos:station:USF.COMPS:C10:1,2017-09-06T20:35:00Z,27.1690,-82.9260,-1.0,30.54,2 
COMPS,ioos:station:USF.COMPS:C10:1,2017-09-06T21:05:00Z,27.1690,-82.9260,-1.0,30.56,2 
COMPS,ioos:station:USF.COMPS:C10:1,2017-09-06T21:35:00Z,27.1690,-82.9260,-1.0,30.62,2 
COMPS,ioos:station:USF.COMPS:C10:1,2017-09-06T22:05:00Z,27.1690,-82.9260,-1.0,30.54,2 
COMPS,ioos:station:USF.COMPS:C10:1,2017-09-06T22:35:00Z,27.1690,-82.9260,-1.0,30.58,2 
COMPS,ioos:station:USF.COMPS:C10:1,2017-09-06T23:05:00Z,27.1690,-82.9260,-1.0,30.55,2 
COMPS,ioos:station:USF.COMPS:C10:1,2017-09-06T23:35:00Z,27.1690,-82.9260,-1.0,30.48,2 
COMPS,ioos:station:USF.COMPS:C10:1,2017-09-07T00:05:00Z,27.1690,-82.9260,-1.0,30.46,2 
COMPS,ioos:station:USF.COMPS:C10:1,2017-09-07T00:35:00Z,27.1690,-82.9260,-1.0,30.46,2 
COMPS,ioos:station:USF.COMPS:C10:1,2017-09-07T01:05:00Z,27.1690,-82.9260,-1.0,30.42,2 
COMPS,ioos:station:USF.COMPS:C10:1,2017-09-07T01:35:00Z,27.1690,-82.9260,-1.0,30.39,2 
COMPS,ioos:station:USF.COMPS:C10:1,2017-09-07T02:05:00Z,27.1690,-82.9260,-1.0,30.37,2 
COMPS,ioos:station:USF.COMPS:C10:1,2017-09-07T02:35:00Z,27.1690,-82.9260,-1.0,30.37,2 
COMPS,ioos:station:USF.COMPS:C10:1,2017-09-07T03:05:00Z,27.1690,-82.9260,-1.0,30.35,2 
COMPS,ioos:station:USF.COMPS:C10:1,2017-09-07T03:35:00Z,27.1690,-82.9260,-1.0,30.32,2 
COMPS,ioos:station:USF.COMPS:C10:1,2017-09-07T04:05:00Z,27.1690,-82.9260,-1.0,30.32,2 
COMPS,ioos:station:USF.COMPS:C10:1,2017-09-07T04:35:00Z,27.1690,-82.9260,-1.0,30.29,2 
COMPS,ioos:station:USF.COMPS:C10:1,2017-09-07T05:05:00Z,27.1690,-82.9260,-1.0,30.29,2 
COMPS,ioos:station:USF.COMPS:C10:1,2017-09-07T05:35:00Z,27.1690,-82.9260,-1.0,30.26,2 
COMPS,ioos:station:USF.COMPS:C10:1,2017-09-07T06:05:00Z,27.1690,-82.9260,-1.0,30.26,2 
COMPS,ioos:station:USF.COMPS:C10:1,2017-09-07T06:35:00Z,27.1690,-82.9260,-1.0,30.22,2 
COMPS,ioos:station:USF.COMPS:C10:1,2017-09-07T07:05:00Z,27.1690,-82.9260,-1.0,30.21,2 
COMPS,ioos:station:USF.COMPS:C10:1,2017-09-07T07:35:00Z,27.1690,-82.9260,-1.0,30.21,2 
COMPS,ioos:station:USF.COMPS:C10:1,2017-09-07T08:05:00Z,27.1690,-82.9260,-1.0,30.22,2 
COMPS,ioos:station:USF.COMPS:C10:1,2017-09-07T08:35:00Z,27.1690,-82.9260,-1.0,30.2,2 
COMPS,ioos:station:USF.COMPS:C10:1,2017-09-07T09:05:00Z,27.1690,-82.9260,-1.0,30.23,2 
COMPS,ioos:station:USF.COMPS:C10:1,2017-09-07T09:35:00Z,27.1690,-82.9260,-1.0,30.24,2 
COMPS,ioos:station:USF.COMPS:C10:1,2017-09-07T10:05:00Z,27.1690,-82.9260,-1.0,30.24,2 